This is the latest recevied weather packets stored in our database for station/object N0KTA-2. If no packets are shown the sender has not sent any weather packets the latest 10 day(s).
| Time | Temp. | Humidity | Pressure | Rain* | Wind** | Luminosity | Snow |
|---|---|---|---|---|---|---|---|
| 1777759163 | 20.56° C | 28% | 1015.9 hPa | 0 mm | - | - | - |
| 1777758564 | 20° C | 30% | 1016 hPa | 0 mm | - | - | - |
| 1777757964 | 20.56° C | 32% | 1016 hPa | 0 mm | - | - | - |
| 1777757365 | 20° C | 32% | 1016.2 hPa | 0 mm | - | - | - |
| 1777756764 | 20° C | 32% | 1016.5 hPa | 0 mm | - | - | - |
| 1777756165 | 20° C | 34% | 1016.5 hPa | 0 mm | - | - | - |
| 1777755563 | 19.44° C | 31% | 1016.7 hPa | 0 mm | - | - | - |
| 1777754964 | 19.44° C | 31% | 1016.9 hPa | 0 mm | - | - | - |
| 1777754363 | 19.44° C | 32% | 1017 hPa | 0 mm | - | - | - |
| 1777753764 | 19.44° C | 33% | 1017 hPa | 0 mm | - | - | - |
| 1777753165 | 19.44° C | 34% | 1017.1 hPa | 0 mm | - | - | - |
| 1777752564 | 19.44° C | 32% | 1017.1 hPa | 0 mm | - | - | - |
| 1777751964 | 19.44° C | 31% | 1017 hPa | 0 mm | - | - | - |
| 1777751365 | 19.44° C | 33% | 1017 hPa | 0 mm | - | - | - |
| 1777750763 | 18.89° C | 35% | 1017.1 hPa | 0 mm | - | - | - |
| 1777750164 | 18.89° C | 34% | 1017.5 hPa | 0 mm | - | - | - |
| 1777749563 | 18.33° C | 37% | 1017.5 hPa | 0 mm | - | - | - |
| 1777748964 | 18.89° C | 35% | 1017.6 hPa | 0 mm | - | - | - |
| 1777748364 | 18.33° C | 33% | 1017.7 hPa | 0 mm | - | - | - |
| 1777747763 | 18.33° C | 36% | 1018 hPa | 0 mm | - | - | - |
| 1777747164 | 18.33° C | 37% | 1018.1 hPa | 0 mm | - | - | - |
| 1777746563 | 17.78° C | 38% | 1018.2 hPa | 0 mm | - | - | - |
| 1777745964 | 18.33° C | 40% | 1018.2 hPa | 0 mm | - | - | - |
| 1777745363 | 17.22° C | 38% | 1018.3 hPa | 0 mm | - | - | - |
| 1777744764 | 17.78° C | 38% | 1018.5 hPa | 0 mm | - | - | - |
* Rain latest hour (hover to see other rain measurements)
** Current wind speed in m/s (hover to see current wind gust speed)